Weather History for KCLS - September, 2013

Change the Weather History Date:

Wednesday, September 18, 2013

  Actual Average (KOLM) Record (KOLM)
Temperature  
Mean Temperature 58 °F 58 °F  
Max Temperature 68 °F 71 °F 86 °F (1991)
Min Temperature 48 °F 46 °F 31 °F (1965)
Degree Days  
Heating Degree Days 7 7  
Month to date heating degree days 88  
Since 1 July heating degree days 238  
Cooling Degree Days 0 0  
Month to date cooling degree days 4  
Year to date cooling degree days 103  
Growing Degree Days 8 (Base 50)    
Moisture  
Dew Point 51 °F    
Average Humidity 81    
Maximum Humidity 100    
Minimum Humidity 49    
Precipitation  
Precipitation 0.00 in 0.05 in 0.85 in (2010)
Month to date precipitation 0.92  
Year to date precipitation 28.52  
Sea Level Pressure  
Sea Level Pressure 30.06 in    
Wind  
Wind Speed 4 mph (SW)    
Max Wind Speed 9 mph    
Max Gust Speed -    
Visibility 9 miles    
Events Rain    
T = Trace of Precipitation, MM = Missing Value Source: NWS Daily Summary

Daily Weather History Graph

Daily Weather History Graph

Search for Another Location

Airport or City:

Trip Planner

Search our weather history database for the weather conditions in past years. The results will help you decide how hot, cold, wet, or windy it might be!

Date:

Astronomy

Sep. 18, 2013 Rise Set
Actual Time 6:54 AM PDT 7:16 PM PDT
Civil Twilight 6:23 AM PDT 7:47 PM PDT
Nautical Twilight 5:47 AM PDT 8:22 PM PDT
Astronomical Twilight 5:10 AM PDT 8:59 PM PDT
Moon 6:41 PM PDT (9/18) 6:02 AM PDT (9/18)
Length of Visible Light 13h 23m
Length of Day
12h 22m
Waxing Gibbous, 99% of the Moon is Illuminated
Sep 18
Waxing Gibbous
Sep 19
Full
Sep 26
Last Quarter
Oct 4
New
Oct 11
First Quarter

Hourly Weather History & Observations

Time (PDT) Temp. Dew Point Humidity Pressure Visibility Wind Dir Wind Speed Gust Speed Precip Events Conditions
12:15 AM 53.6 °F 51.8 °F 94% 30.00 in 10.0 mi SSW 4.6 mph - N/A   Mostly Cloudy
12:35 AM 53.6 °F 51.8 °F 94% 30.00 in 10.0 mi SW 4.6 mph - N/A   Overcast
12:55 AM 53.6 °F 50.0 °F 88% 30.00 in 10.0 mi SSW 5.8 mph - N/A   Mostly Cloudy
1:15 AM 53.6 °F 50.0 °F 88% 30.01 in 10.0 mi South 9.2 mph - N/A   Partly Cloudy
1:35 AM 51.8 °F 50.0 °F 94% 30.02 in 10.0 mi SW 4.6 mph - N/A   Clear
1:55 AM 50.0 °F 50.0 °F 100% 30.02 in 10.0 mi SW 4.6 mph - N/A   Clear
2:15 AM 51.8 °F 50.0 °F 94% 30.02 in 10.0 mi SSW 5.8 mph - N/A   Scattered Clouds
2:35 AM 50.0 °F 50.0 °F 100% 30.02 in 10.0 mi SSW 5.8 mph - N/A   Overcast
2:55 AM 50.0 °F 50.0 °F 100% 30.02 in 10.0 mi SSW 5.8 mph - N/A   Mostly Cloudy
3:15 AM 51.8 °F 50.0 °F 94% 30.02 in 10.0 mi SSW 4.6 mph - N/A   Overcast
3:35 AM 51.8 °F 50.0 °F 94% 30.03 in 10.0 mi SSW 4.6 mph - N/A   Overcast
3:55 AM 51.8 °F 50.0 °F 94% 30.03 in 10.0 mi SW 4.6 mph - N/A   Scattered Clouds
4:15 AM 51.8 °F 50.0 °F 94% 30.04 in 10.0 mi SSW 4.6 mph - N/A   Clear
4:35 AM 50.0 °F 50.0 °F 100% 30.04 in 10.0 mi SSW 5.8 mph - N/A   Clear
4:55 AM 50.0 °F 50.0 °F 100% 30.04 in 10.0 mi SSW 5.8 mph - N/A   Scattered Clouds
5:15 AM 50.0 °F 50.0 °F 100% 30.05 in 10.0 mi SW 4.6 mph - N/A   Partly Cloudy
5:35 AM 50.0 °F 50.0 °F 100% 30.05 in 10.0 mi SW 3.5 mph - N/A   Clear
5:55 AM 50.0 °F 50.0 °F 100% 30.05 in 10.0 mi SW 3.5 mph - N/A   Clear
6:15 AM 50.0 °F 48.2 °F 94% 30.05 in 10.0 mi SW 4.6 mph - N/A   Clear
6:35 AM 48.2 °F 48.2 °F 100% 30.05 in 10.0 mi SW 4.6 mph - N/A   Clear
6:55 AM 50.0 °F 48.2 °F 94% 30.06 in 10.0 mi SW 4.6 mph - N/A   Clear
7:15 AM 50.0 °F 50.0 °F 100% 30.06 in 10.0 mi SSW 4.6 mph - N/A   Clear
7:35 AM 50.0 °F 50.0 °F 100% 30.07 in 10.0 mi SSW 4.6 mph - N/A   Clear
7:55 AM 51.8 °F 50.0 °F 94% 30.07 in 10.0 mi SSW 6.9 mph - N/A   Clear
8:15 AM 53.6 °F 50.0 °F 88% 30.08 in 10.0 mi SSW 5.8 mph - N/A   Clear
8:35 AM 55.4 °F 51.8 °F 88% 30.08 in 10.0 mi SSW 5.8 mph - N/A   Clear
8:55 AM 57.2 °F 53.6 °F 88% 30.08 in 10.0 mi South 5.8 mph - N/A   Clear
9:15 AM 59.0 °F 53.6 °F 82% 30.09 in 10.0 mi South 6.9 mph - N/A   Clear
9:35 AM 59.0 °F 53.6 °F 82% 30.09 in 8.0 mi SSW 4.6 mph - N/A   Clear
9:55 AM 62.6 °F 53.6 °F 72% 30.09 in 10.0 mi South 6.9 mph - N/A   Clear
10:15 AM 62.6 °F 53.6 °F 72% 30.09 in 10.0 mi SSW 4.6 mph - N/A   Scattered Clouds
10:35 AM 64.4 °F 51.8 °F 64% 30.09 in 9.0 mi SSW 4.6 mph - N/A   Mostly Cloudy
10:55 AM 64.4 °F 50.0 °F 59% 30.09 in 9.0 mi NW 4.6 mph - N/A   Mostly Cloudy
11:15 AM 66.2 °F 50.0 °F 56% 30.09 in 10.0 mi WSW 5.8 mph - N/A   Mostly Cloudy
11:35 AM 64.4 °F 50.0 °F 59% 30.09 in 7.0 mi Calm Calm - N/A   Scattered Clouds
11:55 AM 68.0 °F 50.0 °F 52% 30.09 in 10.0 mi NNE 4.6 mph - N/A   Mostly Cloudy
12:15 PM 68.0 °F 50.0 °F 52% 30.09 in 10.0 mi Calm Calm - N/A   Mostly Cloudy
12:35 PM 68.0 °F 48.2 °F 49% 30.09 in 6.0 mi Calm Calm - N/A   Haze
12:55 PM 68.0 °F 50.0 °F 52% 30.09 in 5.0 mi North 3.5 mph - N/A   Haze
1:15 PM 68.0 °F 50.0 °F 52% 30.09 in 9.0 mi WSW 3.5 mph - N/A   Mostly Cloudy
1:35 PM 68.0 °F 50.0 °F 52% 30.08 in 10.0 mi WSW 3.5 mph - N/A   Scattered Clouds
1:55 PM 68.0 °F 50.0 °F 52% 30.08 in 10.0 mi NNE 4.6 mph - N/A   Mostly Cloudy
2:15 PM 68.0 °F 50.0 °F 52% 30.08 in 7.0 mi Calm Calm - N/A   Mostly Cloudy
2:35 PM 66.2 °F 51.8 °F 60% 30.08 in 10.0 mi WNW 6.9 mph - N/A Rain Light Rain
2:55 PM 66.2 °F 51.8 °F 60% 30.08 in 10.0 mi West 3.5 mph - N/A Rain Light Rain
3:15 PM 66.2 °F 51.8 °F 60% 30.08 in 10.0 mi Calm Calm - N/A   Mostly Cloudy
3:35 PM 66.2 °F 50.0 °F 56% 30.07 in 10.0 mi NW 4.6 mph - N/A   Mostly Cloudy
3:55 PM 66.2 °F 51.8 °F 60% 30.07 in 7.0 mi NW 3.5 mph - N/A   Partly Cloudy
4:15 PM 66.2 °F 51.8 °F 60% 30.07 in 10.0 mi Calm Calm - N/A   Partly Cloudy
4:35 PM 66.2 °F 51.8 °F 60% 30.07 in 10.0 mi WNW 3.5 mph - N/A   Clear
4:55 PM 66.2 °F 51.8 °F 60% 30.07 in 10.0 mi WNW 3.5 mph - N/A   Clear
5:15 PM 66.2 °F 50.0 °F 56% 30.07 in 9.0 mi Calm Calm - N/A   Clear
5:35 PM 68.0 °F 51.8 °F 56% 30.07 in 10.0 mi SW 3.5 mph - N/A   Clear
5:55 PM 68.0 °F 51.8 °F 56% 30.07 in 10.0 mi Calm Calm - N/A   Clear
6:15 PM 64.4 °F 53.6 °F 68% 30.07 in 10.0 mi Calm Calm - N/A   Clear
6:35 PM 62.6 °F 53.6 °F 72% 30.06 in 10.0 mi Calm Calm - N/A   Clear
6:55 PM 60.8 °F 55.4 °F 82% 30.07 in 10.0 mi Calm Calm - N/A   Clear
7:15 PM 59.0 °F 55.4 °F 88% 30.07 in 10.0 mi Calm Calm - N/A   Clear
7:35 PM 57.2 °F 55.4 °F 94% 30.07 in 10.0 mi Calm Calm - N/A   Clear
7:55 PM 57.2 °F 53.6 °F 88% 30.08 in 10.0 mi Calm Calm - N/A   Clear
8:15 PM 55.4 °F 53.6 °F 94% 30.08 in 9.0 mi Calm Calm - N/A   Clear
8:35 PM 55.4 °F 53.6 °F 94% 30.08 in 10.0 mi Calm Calm - N/A   Clear
8:55 PM 53.6 °F 53.6 °F 100% 30.08 in 7.0 mi Calm Calm - N/A   Clear
9:15 PM 53.6 °F 53.6 °F 100% 30.08 in 10.0 mi Calm Calm - N/A   Clear
9:35 PM 53.6 °F 51.8 °F 94% 30.08 in 10.0 mi Calm Calm - N/A   Clear
9:55 PM 53.6 °F 51.8 °F 94% 30.07 in 10.0 mi Calm Calm - N/A   Clear
10:15 PM 51.8 °F 50.0 °F 94% 30.07 in 8.0 mi Calm Calm - N/A   Clear
10:35 PM 51.8 °F 50.0 °F 94% 30.07 in 7.0 mi Calm Calm - N/A   Clear
10:55 PM 50.0 °F 50.0 °F 100% 30.06 in 6.0 mi Calm Calm - N/A   Mist
11:15 PM 50.0 °F 50.0 °F 100% 30.07 in 10.0 mi Calm Calm - N/A   Clear
11:35 PM 50.0 °F 50.0 °F 100% 30.06 in 6.0 mi Calm Calm - N/A   Clear
11:55 PM 48.2 °F 48.2 °F 100% 30.06 in 8.0 mi SSE 5.8 mph - N/A   Unknown